Haywood NorAM CEC Pursuit Day 2 2019 | Zone4.ca



Haywood NorAM CEC Pursuit Day 2 2019

Date: Feb 3, 2019
StartList
Location: Duntroon
Host Club: Highlands Trailblazers

Jury
Technical Delegate:  Jacques Dumont 
Chief of Competition:  Shawn Sinclair 
Asst TD  Pierrot Bernier 
App TD  Claude Laramee 
CCC Race Director  Dave Dyer 
Obs. Time: 08:00
Wind Vel: 21  km/hr  Wind Dir: SW
Air Temp: 1 C Snow Temp:
Weather: FreezingDrizzle Snow Cond: Wet packed

Midget Boys (2005/2006) 3.5 km. Free Pursuit    
Bib Start Time Name CCCLic DOB Club Team Diff
441 13:28:00.00 Sullivan Macdonald 38045 2005 Team Hardwood   +18.10
442 13:28:34.00 Cooper Dehaan 40354 2005 Lifeski Academy   +17.10
443 13:28:59.00 Erik Unger 41216 2005 Kawartha Nordic    
444 13:29:07.00 Tilson Dehaan 40353 2005 Lifeski Academy   +50.50
445 13:29:11.00 Liam Ryan 42374 2006 Team Hardwood   +33.30
446 13:29:41.00 Adam Marshall 43027 2005 Team Hardwood   +53.00
447 13:30:05.00 Milo Sircom-Brown DL21 2005 Halifax Nordic NSST +2:01.10
448 13:30:07.00 Evan Armstrong DL19 2005 Kawartha Nordic   +1:02.00
449 13:30:40.00 Henri Lefebvre 42369 2005 Walden Cross Country   +55.80
450 13:30:55.00 Erik Vurma DL22 2006 Team Hardwood   +2:31.00
451 13:31:05.00 Peter Earl 43110 2005 Highlands Trailblazers   +1:55.60
452 13:31:05.00 Cohen Norman 43023 2006 Halifax Nordic NSST +1:57.30
453 13:31:23.00 Malcolm McCulloch 41237 2006 Highlands Trailblazers   +1:59.50
454 13:31:38.00 Levi Dittman 44590 2006 Mono Nordic   +2:13.30
455 13:32:58.00 Tenzen Kipps 43028 2006 Mono Nordic   ***
456 13:33:27.00 Nathan Gojic DL53 2005 Mono Nordic   +2:32.70
457 13:33:33.00 Liam Kenny DL20 2006 Mono Nordic   +2:47.20
458 13:33:47.00 Mitchell Fortin 43147 2005 Kawartha Nordic   +4:11.20
459 13:33:57.00 Ian Schaffer 42494 2006 Temiskaming   +4:26.20
460 13:34:00.00 Eily Woodman DL65 2006 Waterloo Region   +3:19.00
461 13:34:00.00 Gus De Groote 44593 2006 Mono Nordic   +4:01.20
462 13:34:00.00 Max Nilsson DL45 2005 Highlands Trailblazers   +3:40.90
463 13:34:00.00 Jasper Young DL46 2005 Team Hardwood   +3:43.70


Results are posted through an automated system by licenced clubs. For inquires about result corrections please contact the race organizer.

Copyright 2021 - Zone4 Systems zone4.ca       Privacy Policy     Delivery/Refund Policy     Terms of Service    Contact Zone4